Tracking 18784 objects as of 18-August-2017
HD Live streaming from Space Station
objects crossing your sky now

CRRES DEB (CANISTER)

Track CRRES DEB (CANISTER) now!


NORAD ID: 21590
Int'l Code: 1990-065F
Perigee: 327.6 km
Apogee: 31,241.1 km
Inclination: 20.4 °
Period: 547.0 minutes
Semi major axis: 22155 km
RCS: 0.1267 m2 (medium)
Launch date: July 25, 1990
Source: United States (US)
Launch site: AIR FORCE EASTERN TEST RANGE (AFETR)

Note: This is SATELLITE DEBRIS
Your satellite tracking list
Your tracking list is empty





NASA's NSSDC Master Catalog

Two Line Element Set (TLE):
1 21590U 90065F   17228.97965364 +.00000295 +00000-0 +60629-3 0  9998
2 21590 020.4207 021.6752 6976539 128.8703 317.0078 02.63260144044081
Source of the keplerian elements: AFSPC